Theta_e
341 340 343 341 341 342 343 346 346 347 352 352 352 351 350 350 352 352 351 352 351 351 350 350 350 351 351 350 350 350 350 350 349 349 349 348 345 343 344 344 343 342 340 340 341 343 344 344 345 345 344 344 345 346 347 347 347 347 346 346 347 347 347 347 347 346 346 347 349 349 347 347 348 348 348 347 347 347 345 345 345 343 344 345 348
342 343 342 341 342 343 343 346 347 347 351 352 352 352 351 351 351 351 350 350 350 350 349 349 350 349 349 350 350 349 349 349 350 350 349 347 344 344 344 344 343 342 340 339 339 341 342 343 344 344 344 344 343 344 345 346 346 346 345 345 346 347 347 347 345 345 345 345 346 346 346 347 348 347 347 347 347 346 344 344 344 341 342 347 347
342 341 342 342 342 344 346 348 349 350 351 351 352 351 350 350 350 350 350 350 350 350 349 349 349 349 349 349 349 350 349 349 349 349 348 346 344 344 344 344 343 342 341 339 338 339 341 341 342 342 342 342 342 342 343 345 345 345 345 345 346 346 346 346 345 344 344 343 343 343 344 345 345 346 347 346 347 345 343 343 344 343 340 346 345
342 342 342 340 344 346 348 349 350 350 350 351 351 351 350 350 350 350 350 350 350 349 347 347 347 348 348 348 348 348 348 348 348 348 347 345 344 344 343 343 343 341 341 339 337 338 340 341 341 341 340 340 341 342 342 343 343 343 344 345 345 345 346 345 344 344 343 342 342 341 340 338 342 344 346 346 345 345 343 343 343 344 344 344 342
345 345 342 342 345 346 350 351 350 351 351 351 350 350 351 350 350 350 349 349 350 349 348 347 347 348 347 347 347 348 348 349 348 347 347 345 344 343 343 343 342 341 340 339 336 337 339 340 340 340 339 339 340 342 342 342 343 343 344 345 345 345 345 344 343 343 342 342 341 339 335 336 339 344 346 346 345 344 343 344 343 344 343 342 341
346 346 344 345 344 347 348 350 351 350 350 350 350 350 349 349 350 349 349 349 349 348 347 347 347 346 346 346 346 346 347 348 348 347 346 345 344 343 343 342 341 340 340 338 336 336 338 339 339 340 339 339 340 341 341 342 342 343 343 344 345 345 344 343 343 341 340 340 339 336 335 335 337 339 344 345 346 344 343 343 344 344 343 343 341
347 346 344 345 346 346 346 350 350 349 350 350 350 349 349 350 349 348 348 349 349 347 347 346 346 346 345 345 346 345 345 347 347 346 346 344 343 343 342 341 341 340 339 337 335 334 338 339 339 339 339 339 339 339 341 342 342 342 343 344 344 343 343 342 341 341 339 336 334 334 334 334 334 336 344 345 345 344 344 344 344 344 343 342 340
347 346 345 344 345 345 347 350 350 350 350 349 349 349 349 349 348 348 348 348 348 347 346 346 346 345 346 345 345 345 345 346 347 346 345 343 343 343 342 341 341 340 339 337 334 333 335 337 338 338 337 338 338 338 340 341 342 343 343 343 343 342 341 340 339 339 338 334 334 333 333 332 332 334 341 341 343 344 344 344 344 342 342 340 336
346 345 344 342 342 342 345 348 350 350 350 349 349 349 349 348 348 348 348 347 347 346 346 346 346 346 346 346 346 346 346 346 346 346 343 343 342 342 342 341 340 339 338 337 333 331 334 335 337 337 337 337 337 336 338 340 341 343 343 342 341 340 339 338 336 335 332 330 331 334 334 332 330 331 338 340 341 341 341 340 341 341 338 336 334
345 345 344 342 342 341 346 347 347 350 350 349 349 349 348 348 348 348 347 347 347 347 346 346 346 346 346 345 344 344 345 345 345 345 343 342 342 342 341 340 339 338 338 336 333 330 332 333 335 336 336 336 334 337 338 339 341 342 342 341 341 339 337 336 334 333 329 329 329 330 336 339 331 332 336 337 337 337 336 337 337 338 336 334 334
345 345 343 341 341 342 349 349 347 349 350 349 349 349 348 348 348 347 347 347 347 346 346 346 346 346 346 346 345 344 345 345 345 344 343 342 342 341 340 339 338 338 337 336 332 329 331 333 334 336 337 335 333 336 338 339 340 341 340 339 339 337 336 334 331 327 328 328 329 329 333 339 334 333 338 337 337 336 334 334 335 336 335 334 334
344 345 344 340 341 341 348 348 349 350 350 349 349 348 348 348 348 347 347 347 347 346 346 346 346 347 346 345 345 345 345 345 344 344 342 341 341 340 340 339 339 338 336 335 332 329 330 332 333 335 337 335 335 335 336 338 339 340 339 338 337 335 333 331 327 326 326 327 328 331 330 331 333 337 339 338 337 336 335 334 335 336 333 334 334
344 344 344 342 339 340 345 347 347 349 349 349 349 348 348 348 347 347 347 347 347 346 346 345 345 346 346 345 345 345 345 344 344 343 342 341 340 340 339 339 338 337 336 334 331 328 328 330 333 336 336 335 334 334 335 337 338 338 337 336 334 332 330 328 324 324 324 325 327 328 329 330 331 337 338 338 336 335 334 334 335 334 334 333 333
343 344 344 344 342 342 340 343 346 349 349 348 349 349 348 348 347 347 347 347 347 347 345 345 346 346 345 345 345 345 345 344 343 343 342 341 341 340 339 339 338 337 335 333 331 327 327 329 332 335 334 333 332 332 334 335 336 336 335 333 331 329 326 325 324 321 323 323 325 326 327 330 331 336 337 336 335 335 334 334 334 333 333 332 332
342 342 342 343 343 342 339 339 342 344 346 347 348 348 348 348 348 348 347 348 347 347 346 345 346 346 346 345 345 345 344 344 343 343 342 341 341 341 339 338 338 337 335 332 330 326 326 329 331 332 331 330 330 330 332 333 333 333 332 330 328 326 323 318 319 318 320 321 322 324 325 328 334 335 336 335 334 334 333 333 333 332 331 331 331
338 339 340 340 342 342 343 340 336 337 341 344 345 345 346 347 348 348 348 347 346 346 346 346 346 346 346 345 345 344 344 344 343 342 341 341 341 340 339 339 338 337 334 331 327 324 325 327 329 329 328 328 328 328 329 330 328 327 326 325 324 322 320 318 315 315 316 317 319 321 323 328 334 333 334 334 333 333 332 332 332 332 331 331 331
334 335 336 336 338 341 342 343 338 334 335 338 340 340 343 344 345 346 347 347 346 346 346 347 346 345 344 343 344 344 343 343 342 342 341 341 340 340 339 338 337 335 333 330 325 324 324 326 327 325 325 326 326 325 325 324 321 320 320 319 318 317 316 313 310 311 313 315 316 318 321 325 333 333 332 333 333 333 332 332 332 331 331 331 331
329 331 330 333 333 336 338 341 339 339 339 336 334 337 339 342 343 342 344 343 345 345 345 346 344 342 343 341 340 340 342 343 342 342 341 340 339 339 338 337 337 335 332 329 325 324 323 325 324 324 324 323 323 323 321 317 317 316 315 314 313 313 312 311 306 309 312 317 313 317 319 332 333 333 333 332 333 332 332 332 331 331 331 330 331
321 321 320 323 323 327 332 338 338 339 339 339 339 336 334 337 340 339 340 342 341 342 342 337 340 340 337 336 336 336 336 337 339 340 338 337 336 337 337 336 336 334 332 329 327 325 323 322 321 322 322 323 322 321 321 319 318 316 314 311 309 307 306 304 302 306 310 314 315 316 320 329 330 331 332 332 332 331 331 331 331 331 331 330 330
315 316 317 317 318 320 324 327 329 335 337 338 338 338 331 331 335 336 337 338 340 340 337 335 333 330 331 331 330 330 330 331 327 331 333 334 333 331 336 336 335 334 332 330 328 326 324 322 321 321 320 321 322 322 321 320 319 316 313 310 307 304 295 295 297 301 306 312 316 317 326 327 328 328 330 332 332 331 332 333 333 336 333 333 333
314 314 315 316 317 318 321 320 323 324 330 334 337 338 334 329 331 331 331 333 332 335 334 327 324 324 325 324 327 334 334 332 332 330 326 329 326 328 335 336 335 334 332 331 329 326 324 323 322 320 319 318 316 316 319 320 318 316 312 308 304 296 295 295 297 301 304 309 314 320 328 328 329 329 328 330 333 333 335 334 334 336 335 335 334
310 312 314 315 316 317 317 318 319 321 322 330 335 338 335 331 337 336 335 332 327 326 330 332 329 329 322 328 334 332 333 334 332 331 329 327 328 325 328 333 335 333 333 331 330 329 328 325 322 321 319 317 311 302 304 311 314 313 309 306 297 296 296 296 298 301 305 308 313 322 326 327 328 330 330 330 329 332 332 331 331 331 332 334 334
308 310 312 313 314 315 316 317 318 319 321 325 330 335 336 336 336 336 335 329 330 330 333 330 332 331 330 333 332 333 333 332 331 330 329 324 328 324 326 330 332 331 332 332 332 331 330 326 323 322 319 314 305 303 302 299 300 305 303 299 297 297 297 298 300 302 305 310 312 322 323 324 326 328 329 329 329 329 329 330 329 329 330 331 333
304 305 307 310 312 314 314 315 315 318 320 321 326 331 337 337 336 336 335 335 333 334 333 333 333 332 332 333 333 333 333 332 326 323 327 328 325 323 325 326 327 325 325 325 328 328 326 324 321 318 314 309 306 305 304 302 301 299 299 298 298 298 298 298 300 302 305 310 313 320 322 323 325 325 325 326 325 324 324 326 326 328 328 329 331
303 304 304 306 307 311 312 313 314 316 318 320 324 329 331 336 336 336 335 334 333 333 333 332 331 330 331 329 330 332 331 328 328 328 330 329 330 330 330 329 326 323 321 320 319 318 316 313 312 311 309 309 308 306 305 304 303 302 300 299 299 298 298 299 300 302 304 308 313 319 322 324 326 326 326 326 326 325 324 324 325 325 326 326 328
303 304 305 305 306 307 309 311 312 316 318 320 321 325 328 334 335 336 336 334 333 333 333 333 333 332 331 330 328 330 330 329 329 329 328 331 331 331 331 330 326 322 320 323 320 317 316 314 312 311 311 310 308 307 306 305 304 303 302 301 300 300 299 299 300 301 302 305 310 317 320 322 324 326 327 327 327 326 326 326 326 326 326 326 326
302 302 303 304 305 305 305 306 311 315 318 319 321 327 328 332 336 335 335 333 332 331 330 330 330 331 331 330 329 328 328 329 328 328 329 331 330 330 330 328 325 323 321 324 322 320 319 315 313 313 313 311 309 307 307 305 304 303 301 301 300 299 299 299 299 299 300 301 307 314 316 319 322 324 326 326 326 326 326 326 326 326 325 326 326
301 302 303 305 304 305 305 308 308 312 316 318 326 329 329 331 331 330 331 329 329 328 328 328 327 326 325 325 326 328 328 328 328 328 328 329 328 328 329 325 323 323 320 322 322 321 319 319 316 315 314 312 310 308 307 306 304 303 301 299 298 298 297 297 297 297 297 297 300 308 312 316 318 320 322 324 326 326 326 325 325 325 326 325 325
302 302 304 305 305 306 309 310 309 313 315 319 329 328 329 329 328 328 327 324 327 326 326 326 325 325 324 324 326 327 328 328 327 326 326 325 325 326 326 324 325 324 322 321 323 321 320 319 317 315 314 312 310 307 307 306 305 303 300 299 298 297 297 297 296 296 296 295 295 301 308 311 315 318 319 321 323 325 326 325 324 324 325 325 325
303 304 305 304 306 309 311 310 307 313 317 326 328 327 327 325 325 325 324 322 325 324 324 323 324 325 326 326 326 328 328 327 325 325 324 322 322 323 323 323 324 323 323 321 320 320 318 318 317 316 314 311 310 308 307 306 304 302 300 299 298 298 298 297 296 295 295 294 293 294 302 306 309 314 316 318 320 322 323 324 324 324 324 323 324
301 303 305 306 308 311 310 307 309 314 322 326 326 325 324 323 322 322 321 321 321 321 321 322 322 323 324 326 326 327 326 325 324 323 322 322 321 321 321 321 321 321 321 320 319 319 318 317 317 315 314 313 312 311 308 306 304 302 301 299 297 298 298 298 296 295 294 293 292 292 294 300 303 307 311 315 317 319 322 321 323 324 324 324 325
302 303 307 309 310 310 309 310 313 317 322 324 323 322 321 319 318 319 318 318 317 318 318 319 318 321 322 322 323 324 323 323 322 321 321 321 320 320 320 320 318 319 319 319 318 317 316 315 314 314 313 313 312 312 310 306 303 302 301 299 299 298 297 296 295 294 293 292 291 291 291 292 297 301 304 310 313 315 317 319 319 321 322 322 322
302 304 307 308 309 310 310 311 314 318 321 320 319 318 317 316 315 315 315 315 315 316 316 317 317 318 320 321 321 321 321 321 320 320 319 319 318 318 317 317 317 318 318 317 315 314 312 310 309 310 310 311 310 309 308 304 302 300 300 299 298 297 296 295 294 293 291 290 290 290 289 290 289 294 298 302 307 310 311 314 316 316 318 319 320
305 306 308 308 309 310 311 311 313 314 315 315 315 314 314 313 312 312 312 312 311 311 311 313 315 316 317 318 319 319 319 319 319 317 317 316 316 315 314 313 313 313 312 312 310 310 308 307 307 308 307 308 308 306 304 302 301 301 299 298 297 295 294 293 292 291 290 289 288 289 289 288 288 287 288 295 300 305 308 309 312 313 314 316 317
304 305 307 308 308 309 310 309 310 311 311 312 312 311 311 311 310 310 310 310 309 309 309 309 311 313 314 314 315 315 315 315 315 315 313 313 312 311 310 309 309 308 308 308 307 305 305 304 305 305 305 306 306 305 303 301 300 299 297 296 294 293 292 291 290 288 287 287 287 287 288 288 288 287 287 286 292 299 303 306 306 309 310 311 312
304 306 307 307 307 308 309 308 309 310 310 309 310 309 309 309 308 307 307 307 307 306 306 307 308 310 311 311 311 312 312 311 311 311 310 310 310 308 307 306 306 305 304 303 303 302 301 301 301 304 304 303 303 303 302 300 298 296 295 294 293 292 291 290 288 288 287 287 286 286 286 287 288 288 290 285 286 290 299 301 303 305 307 308 309
305 306 306 306 306 306 307 308 308 308 308 307 307 306 306 305 305 304 304 304 304 303 304 305 306 307 307 307 308 309 309 309 310 310 309 308 307 306 306 306 305 303 302 300 299 299 299 298 297 298 303 302 302 300 299 297 295 294 293 292 291 291 289 288 288 287 289 287 286 285 285 285 287 291 286 286 285 285 291 298 299 301 303 304 305
305 306 306 306 305 305 306 306 306 307 307 306 305 304 303 302 302 301 301 301 301 301 302 302 302 303 304 304 304 305 306 306 306 306 305 305 305 305 304 304 302 299 297 296 294 295 296 297 295 294 297 301 300 298 296 294 294 293 291 290 289 287 286 286 287 288 287 287 286 286 285 284 285 285 286 286 285 285 285 289 294 294 297 301 303
304 305 305 304 303 304 304 305 305 305 304 303 302 301 301 300 300 300 299 298 298 299 300 299 300 300 301 302 302 303 303 303 303 303 303 303 302 301 300 298 297 295 293 292 292 292 292 293 294 293 294 296 297 297 295 294 293 292 290 289 288 287 286 286 286 285 284 284 287 287 286 285 284 284 284 285 285 285 285 285 285 285 287 298 301
303 306 305 303 304 304 304 303 303 304 304 302 301 300 300 299 298 298 297 296 296 296 296 296 297 298 299 300 300 300 301 301 301 301 300 299 297 296 296 296 295 293 292 290 290 290 291 292 293 294 294 294 294 295 294 293 291 290 289 288 288 287 287 286 285 285 284 283 283 284 284 284 284 284 283 284 284 284 284 284 286 285 286 290 296
303 305 304 303 304 303 302 302 303 303 302 302 300 300 299 299 299 298 296 295 295 295 294 294 294 295 296 297 297 298 299 299 299 299 297 296 294 294 294 293 293 292 290 288 287 287 288 291 291 293 293 291 289 289 290 290 289 286 286 286 286 286 288 286 285 284 284 283 282 282 282 283 283 283 282 283 283 283 283 283 284 284 285 285 287
302 304 304 303 302 303 302 301 302 302 302 302 302 301 300 300 298 295 294 294 295 294 292 293 293 293 293 294 294 295 296 296 296 296 295 293 293 293 292 291 291 289 289 288 287 289 287 289 290 288 286 289 284 283 285 288 288 285 285 283 284 284 285 284 284 284 283 283 282 282 281 282 282 282 282 282 282 282 283 283 283 284 284 285 285
302 303 304 303 302 302 303 302 301 301 302 302 302 299 297 296 295 294 293 290 290 291 291 291 291 290 290 291 291 292 293 293 293 293 292 291 291 290 289 289 288 288 287 285 285 285 285 287 289 290 286 284 284 285 284 286 286 285 284 283 281 279 284 281 281 283 282 282 281 282 282 281 281 281 281 281 281 281 282 282 282 283 284 284 284
302 303 304 303 303 301 302 302 301 302 301 300 298 296 295 293 292 291 291 291 290 290 290 290 289 288 288 289 289 289 290 290 290 290 290 289 289 289 288 287 286 286 286 285 284 284 284 285 287 288 289 286 281 283 284 284 287 287 286 283 281 278 279 281 279 280 280 280 281 281 281 281 280 281 280 280 281 281 281 282 282 282 283 283 283
302 302 302 303 303 302 302 302 302 301 299 296 295 294 292 291 290 290 291 290 290 290 290 288 288 288 288 288 287 288 288 287 287 288 289 288 288 287 287 286 285 284 285 284 283 283 282 282 284 285 286 287 281 281 283 284 283 283 285 278 279 280 279 278 276 281 279 279 279 279 282 280 279 281 279 279 280 280 281 281 281 282 283 282 282
302 303 302 303 303 303 302 301 300 298 296 295 294 294 292 291 291 291 290 289 289 290 290 288 287 287 286 285 285 286 286 285 285 286 287 287 286 286 285 285 284 284 284 284 283 282 282 282 282 284 283 283 284 282 281 283 282 283 282 279 281 279 277 278 276 278 276 278 278 279 279 279 277 279 279 279 279 279 281 280 280 282 282 281 281
301 302 302 302 301 302 302 300 298 297 296 295 294 294 292 292 293 293 292 291 290 288 287 287 287 286 286 285 284 284 283 284 284 285 285 285 285 285 284 284 284 284 284 283 283 282 282 282 282 283 283 285 283 282 281 281 281 282 281 280 280 279 277 277 278 276 275 276 276 277 278 279 278 278 279 278 278 279 279 280 280 281 281 281 280
300 302 301 300 300 300 300 298 296 296 295 294 294 294 293 292 292 292 291 291 290 286 285 285 285 285 285 284 283 282 283 283 284 283 284 284 284 284 283 283 283 283 283 283 282 282 283 283 282 282 281 281 282 282 280 279 279 280 281 280 280 279 278 278 275 277 276 274 274 275 275 278 278 277 277 278 278 278 278 279 280 280 280 279 279
299 301 301 299 299 298 298 297 296 295 294 294 294 293 294 294 293 292 290 288 286 285 285 286 285 284 283 283 281 281 281 282 282 283 282 284 284 283 283 283 283 282 283 282 281 282 282 281 281 282 281 281 281 280 280 278 280 279 278 277 278 277 277 277 276 276 275 274 273 275 274 276 276 275 278 277 278 278 278 278 280 279 281 279 278
298 299 299 297 297 296 295 295 294 294 294 294 293 293 293 293 292 291 288 285 285 283 283 283 283 283 282 281 280 281 280 281 281 281 282 282 282 282 282 282 282 282 282 281 281 281 281 281 281 281 281 280 280 280 280 279 279 278 277 278 277 277 276 276 276 274 275 275 276 273 275 275 274 275 277 277 278 279 277 278 277 277 278 278 278
295 297 297 296 295 295 294 294 294 293 293 292 292 292 292 292 291 290 287 285 284 283 282 281 281 281 281 280 280 280 280 280 280 280 281 281 281 282 281 281 281 282 281 280 280 281 280 281 280 280 281 281 280 281 280 279 279 278 277 277 277 276 276 277 275 276 274 273 274 274 274 275 275 274 275 276 279 278 277 277 276 277 278 277 278
Wind_Speed
5 7 5 9 7 6 7 6 6 4 11 12 12 13 14 14 15 14 14 14 16 15 15 16 16 17 16 15 15 15 16 17 17 18 18 18 17 17 17 17 17 17 16 16 16 16 16 16 16 16 16 15 15 15 17 17 17 16 15 16 16 16 16 16 16 16 16 18 19 18 17 17 18 18 18 19 19 18 18 18 15 12 8 13 20
8 6 5 6 9 9 8 7 8 8 11 12 12 12 13 14 14 14 14 15 16 15 15 15 15 16 16 16 15 16 16 16 17 17 18 17 17 16 16 16 16 16 16 16 16 16 16 16 16 17 17 16 16 15 16 17 17 16 15 16 15 16 16 16 16 16 16 17 17 17 16 18 18 18 18 18 19 19 17 17 18 10 8 18 20
8 8 6 6 10 10 10 9 10 10 11 12 13 12 12 12 13 13 14 14 15 15 15 14 14 15 15 16 16 16 16 16 16 17 17 17 16 15 15 16 16 17 16 16 16 16 16 16 16 16 16 16 16 15 15 16 16 16 16 16 16 16 16 16 16 16 16 15 15 15 16 18 18 18 18 18 18 18 16 16 17 17 11 21 19
9 6 7 8 11 11 12 10 9 9 10 10 11 11 11 12 12 13 13 14 15 15 15 14 14 14 14 15 16 16 16 16 17 17 16 16 16 15 16 15 16 17 16 16 16 16 16 16 16 16 15 15 15 15 15 16 15 15 16 16 16 16 17 17 17 17 16 15 15 15 7 6 10 18 19 19 18 17 15 16 17 19 19 18 19
9 8 7 6 8 9 9 9 8 8 10 10 10 11 10 12 12 13 13 14 14 14 15 14 13 14 14 15 15 15 15 16 16 16 16 16 16 16 15 16 16 16 16 16 16 16 16 16 16 16 16 15 15 15 16 15 16 17 17 17 18 17 17 17 16 15 15 14 14 10 7 7 6 17 19 19 18 17 16 17 17 17 17 18 18
8 6 6 6 5 8 10 10 9 10 10 10 10 10 10 10 11 13 13 13 14 14 14 13 13 13 13 14 15 15 15 15 16 16 17 17 17 16 15 16 16 16 16 16 16 16 16 16 16 17 16 16 15 16 16 15 17 18 18 18 19 18 17 17 16 15 14 13 11 7 7 7 7 9 20 19 18 17 16 16 17 17 17 17 16
9 5 5 4 5 6 10 10 11 10 10 10 9 9 9 8 10 12 12 13 14 14 13 13 12 12 13 14 14 15 14 14 15 17 17 16 16 15 15 16 16 15 15 15 16 16 16 16 17 17 17 16 16 16 16 16 18 17 18 19 19 18 18 18 17 16 15 9 7 7 7 8 6 6 19 19 18 18 18 17 17 18 18 17 17
6 5 5 4 4 7 10 10 10 11 11 10 10 9 8 9 10 12 11 11 12 13 13 13 12 12 13 14 14 14 14 14 15 17 17 16 15 15 15 15 15 14 14 15 15 16 16 16 17 17 17 16 16 16 16 17 17 17 18 19 18 17 17 16 15 15 16 8 6 6 7 7 7 6 16 17 19 19 19 18 17 17 17 17 15
6 5 5 3 4 7 7 9 10 12 11 10 10 10 10 9 10 11 11 11 12 12 12 13 13 13 13 13 14 14 14 14 15 16 15 15 14 15 15 14 14 14 14 14 15 15 16 16 16 16 16 16 15 16 17 18 17 17 17 17 17 16 15 15 14 13 10 6 7 6 7 6 5 6 14 17 18 19 19 15 12 15 16 16 15
5 5 5 3 4 8 8 10 10 11 11 11 9 10 10 9 10 11 11 11 11 12 12 13 13 13 12 12 12 13 13 13 15 15 14 14 14 14 14 14 14 13 14 14 14 15 15 16 16 16 16 16 16 16 16 17 17 18 18 17 17 16 15 15 14 10 7 7 7 7 8 10 5 6 14 16 17 18 16 16 14 13 13 16 17
5 5 4 4 5 8 8 10 9 10 11 10 10 10 10 9 8 9 10 11 11 11 12 13 13 12 12 12 12 13 13 13 14 13 14 14 14 13 13 13 13 13 13 13 14 14 15 15 15 16 16 16 16 16 17 17 17 17 17 17 16 16 15 14 11 7 7 8 7 7 7 14 6 6 15 17 17 17 16 16 16 16 17 17 16
5 4 4 3 6 8 8 8 9 9 10 9 10 10 10 9 9 9 9 10 10 11 12 12 12 12 12 12 12 12 12 12 13 13 13 13 13 12 12 12 12 13 13 13 13 14 14 15 15 16 16 16 16 16 17 17 17 17 17 17 16 16 15 14 8 7 7 8 8 7 7 6 6 11 18 17 17 16 16 17 17 17 17 16 17
4 4 3 3 3 6 7 7 6 9 9 9 10 10 10 9 10 9 9 10 10 10 10 10 11 11 11 12 12 12 11 11 12 12 12 13 12 11 11 11 12 12 13 13 13 13 14 14 15 15 16 16 16 16 17 17 16 16 16 16 15 15 14 13 7 8 7 7 7 7 6 6 7 17 16 17 17 16 17 17 17 17 16 16 17
5 4 4 3 2 5 7 7 7 7 7 7 8 9 9 9 8 9 9 9 9 8 10 10 11 11 11 11 11 12 11 11 12 11 11 12 12 11 11 10 11 12 12 12 12 13 13 14 15 15 15 16 16 16 16 16 16 16 16 15 15 13 12 9 8 7 7 7 7 6 6 6 8 17 17 17 17 17 17 17 17 16 16 16 16
5 4 3 3 2 3 5 6 6 7 6 6 6 8 9 8 8 7 8 7 7 8 8 10 11 11 10 10 11 11 11 11 12 11 12 11 11 11 10 10 11 12 12 13 13 13 14 14 15 15 15 15 15 16 16 16 16 16 15 15 14 14 12 7 7 7 7 7 6 7 6 5 14 17 18 17 17 17 17 17 17 16 16 16 16
6 4 4 3 2 3 2 3 5 6 6 6 6 6 5 7 7 6 6 5 8 8 8 10 10 10 10 10 10 10 10 11 11 11 11 11 11 11 11 11 11 12 13 13 14 14 15 15 15 15 15 15 16 17 17 17 17 16 16 15 14 14 13 8 6 7 6 7 6 6 6 4 16 17 17 17 17 17 17 17 17 16 16 16 16
5 4 6 3 3 2 2 2 3 4 5 6 5 6 7 6 6 6 5 4 6 7 9 9 10 9 9 9 9 8 7 8 9 9 10 11 11 11 11 11 12 13 14 14 15 15 15 15 15 15 15 16 17 17 17 17 17 16 16 15 15 14 13 10 7 6 6 7 6 6 6 3 13 16 17 17 17 16 16 17 17 16 16 17 16
4 5 6 1 4 4 1 3 2 3 2 3 3 5 5 6 7 5 7 5 5 4 7 8 7 7 9 6 7 7 7 7 7 8 10 10 10 11 11 11 12 13 13 14 14 15 15 15 15 15 16 16 17 17 18 18 17 16 16 16 15 15 14 11 7 6 7 7 7 6 6 11 15 15 15 16 16 16 16 15 15 15 15 16 15
6 7 7 7 7 6 5 2 1 2 2 2 1 1 3 4 6 6 4 7 6 7 5 5 8 7 8 8 7 6 6 7 7 7 9 9 8 10 11 10 12 12 12 13 14 15 15 15 15 15 15 16 17 17 17 17 16 16 15 15 15 13 14 9 7 7 8 7 7 7 7 13 14 15 16 16 15 15 14 13 14 13 13 13 14
6 7 7 6 5 5 4 4 5 2 2 2 0 2 1 3 3 7 7 2 8 8 9 7 8 8 8 7 7 6 5 6 9 7 8 8 8 8 9 9 11 12 11 11 13 14 15 15 15 15 15 16 16 15 15 16 15 14 14 14 13 12 9 7 7 8 7 7 7 6 10 14 15 15 15 16 16 16 16 16 17 18 16 14 14
4 5 4 4 2 3 4 4 3 4 3 3 3 2 2 3 3 4 6 5 4 9 9 9 8 7 6 7 6 5 4 4 5 4 7 6 9 9 9 9 10 10 10 10 11 13 14 14 14 14 14 14 13 14 14 13 13 14 14 13 12 9 7 7 8 7 6 7 7 7 15 15 17 17 16 16 16 17 19 17 18 18 17 16 16
2 3 4 3 4 4 5 5 4 6 5 3 1 1 2 3 3 3 4 4 4 5 6 5 5 4 6 5 4 4 3 3 5 4 4 6 7 10 9 8 8 9 9 9 10 11 12 12 13 14 13 12 11 8 8 11 13 13 12 11 9 7 8 8 8 7 7 7 7 10 18 18 17 18 18 18 17 18 20 20 21 20 20 19 17
2 2 2 4 2 2 2 4 3 4 3 2 1 2 2 2 2 3 3 4 4 4 5 5 3 4 4 4 4 3 3 4 4 5 4 6 7 10 9 8 8 8 8 8 10 11 12 11 12 12 12 11 8 7 7 7 7 11 9 8 7 7 8 9 8 8 8 7 7 16 17 18 17 17 17 17 18 18 19 20 19 19 17 20 21
2 1 0 2 2 2 2 1 1 2 2 2 1 1 4 3 4 3 3 4 4 3 3 4 3 3 4 3 4 4 4 3 5 8 7 5 5 8 9 8 8 8 9 7 9 10 12 12 11 10 7 5 6 7 7 6 6 6 7 7 7 8 8 8 7 7 8 8 9 18 18 18 18 17 17 17 17 17 18 18 18 18 18 19 20
3 0 0 1 1 2 3 3 3 2 2 1 1 0 2 4 3 4 4 3 3 3 3 3 3 2 2 2 2 4 4 4 4 4 5 5 5 5 5 4 5 4 6 5 5 5 6 6 6 6 6 5 6 6 7 7 7 7 7 7 7 7 8 7 7 7 8 8 10 18 19 19 19 19 18 18 18 18 18 17 17 18 17 18 19
1 1 1 1 1 1 1 2 2 2 2 0 2 1 3 4 4 4 5 4 3 4 3 3 4 4 3 4 4 4 4 5 3 4 3 5 5 4 4 4 4 3 3 5 4 5 5 5 5 6 5 5 6 6 6 7 7 7 7 7 7 7 7 7 7 7 7 7 10 17 19 19 19 19 19 19 19 19 19 19 18 19 18 18 18
2 2 1 1 1 2 2 1 1 2 2 2 2 2 2 4 4 4 5 4 4 5 4 4 3 4 4 5 5 4 4 4 4 3 4 4 4 4 3 3 3 3 2 5 5 4 5 5 5 5 5 5 6 6 7 7 7 8 8 8 7 7 7 7 7 7 7 7 10 18 17 19 20 20 20 19 19 19 18 18 18 18 18 18 18
2 2 1 1 1 2 2 1 2 2 3 3 2 2 3 3 4 5 4 6 5 4 5 3 3 3 3 3 4 4 5 4 4 5 4 4 4 3 4 3 3 2 3 4 5 5 5 5 5 5 6 5 6 7 7 7 7 8 9 7 7 7 7 7 7 7 6 7 8 14 17 19 19 19 20 20 19 19 18 18 18 19 18 19 19
4 3 2 1 2 2 2 2 1 2 3 4 4 3 4 4 5 4 6 2 5 5 5 4 3 3 3 4 5 6 5 5 5 4 3 4 3 3 3 3 3 3 4 3 5 6 5 5 5 5 5 5 5 7 8 8 7 7 8 8 7 7 8 7 7 7 6 7 8 12 19 19 19 20 20 20 20 20 19 18 17 18 18 19 19
5 3 2 2 2 2 3 3 3 4 5 5 5 5 5 6 5 5 5 4 4 5 4 3 4 4 3 4 5 6 5 6 5 4 5 4 4 4 4 3 4 3 4 4 4 5 6 5 5 5 5 5 6 6 7 8 7 7 8 8 7 7 7 7 7 7 6 7 8 10 18 20 20 20 21 21 21 21 21 21 20 19 18 17 17
3 3 3 2 3 3 3 3 4 5 5 6 6 6 6 6 5 5 4 6 3 5 5 3 6 3 4 4 4 5 5 6 6 5 5 5 4 4 4 3 4 3 4 5 4 6 5 5 5 5 5 5 6 5 7 8 7 8 8 8 6 7 7 7 7 7 8 7 7 7 11 19 21 21 21 22 22 21 22 22 21 20 17 19 20
4 3 2 3 2 3 3 2 2 4 5 5 6 7 6 7 5 6 4 5 2 5 5 4 5 4 3 4 4 4 5 6 6 6 5 5 5 4 4 4 4 4 4 5 5 6 6 6 7 6 4 5 7 7 7 8 8 7 7 8 7 8 7 7 7 7 7 8 8 8 8 9 16 20 21 22 22 23 22 23 23 22 21 21 21
2 3 2 2 3 2 1 1 1 3 5 6 6 6 6 8 5 6 4 6 4 5 5 4 5 4 3 6 5 5 5 6 6 6 6 6 6 6 6 5 4 5 5 7 8 7 7 7 7 5 6 7 7 8 7 8 8 7 7 7 8 8 7 7 7 7 8 8 8 7 7 8 9 14 19 21 22 23 23 23 23 23 23 23 22
3 2 1 4 2 2 1 1 1 3 5 5 5 6 5 7 5 5 5 6 4 4 5 4 4 5 6 5 4 5 5 5 7 6 6 7 6 6 6 6 5 6 6 5 7 7 7 8 6 6 6 7 7 7 8 8 7 7 7 7 8 7 7 8 7 7 7 7 6 7 7 7 8 8 9 16 20 21 23 23 23 23 23 23 23
3 2 3 4 3 1 0 1 2 4 5 6 5 6 4 8 5 4 5 6 5 4 4 5 4 6 6 4 4 4 5 5 5 7 6 6 7 6 6 6 5 5 6 5 6 6 7 7 5 8 7 7 7 6 8 7 7 8 7 7 8 7 7 7 7 7 7 6 7 7 7 7 7 7 8 8 11 18 21 23 23 23 23 23 22
4 4 4 3 3 1 0 2 3 5 4 5 5 6 5 7 5 4 5 6 5 4 4 6 5 5 6 4 3 4 5 5 5 6 7 6 7 6 5 6 6 6 6 5 5 7 6 6 5 4 9 6 8 7 6 8 8 8 7 7 7 7 7 6 6 6 5 6 7 6 6 7 7 7 7 7 7 10 19 19 22 22 23 23 22
4 5 5 4 3 2 1 3 5 5 6 5 6 6 5 7 6 4 5 6 5 5 5 5 5 6 5 4 3 4 5 5 6 6 7 7 7 7 5 6 5 6 6 6 6 4 6 7 6 5 5 8 8 8 7 8 8 7 7 8 6 6 6 6 6 5 5 8 6 6 7 7 6 7 7 7 7 7 12 18 18 20 21 22 22
5 5 5 5 5 3 2 3 4 5 5 6 5 6 6 7 6 4 6 5 5 5 5 5 5 5 5 5 4 4 5 5 7 6 7 6 6 7 6 6 6 6 6 6 6 5 6 7 8 5 4 7 8 9 8 8 7 7 8 8 6 6 6 6 5 5 7 7 7 7 6 6 7 7 7 7 7 7 7 11 15 15 18 20 22
5 6 5 3 4 4 3 4 5 6 5 6 5 7 8 7 6 6 6 5 5 6 6 6 4 6 5 5 4 4 6 6 7 7 8 7 7 7 7 5 5 7 6 6 6 6 7 5 10 7 6 5 8 7 9 8 8 7 7 7 6 6 6 6 6 7 7 6 6 5 6 7 6 7 7 7 7 7 8 7 7 7 9 19 20
5 6 6 4 5 5 4 4 4 5 6 6 5 7 5 4 6 6 7 5 5 7 7 7 6 6 5 4 4 4 4 5 6 7 7 7 7 6 7 4 5 6 7 8 6 6 8 10 8 11 10 8 7 7 7 10 8 8 7 6 6 5 6 6 7 6 6 6 6 6 7 6 7 7 7 7 7 7 8 7 7 7 7 11 18
5 7 6 6 6 7 7 7 5 6 6 6 5 6 8 4 3 5 6 3 3 6 7 6 5 4 5 4 4 4 4 5 6 7 8 7 6 6 7 6 5 7 7 7 5 6 5 8 7 6 11 10 5 3 3 5 11 7 6 6 6 4 4 6 7 6 6 5 5 6 6 7 7 7 6 6 7 8 7 8 7 7 7 7 9
7 7 8 7 6 6 8 7 6 6 6 6 6 4 3 3 6 4 5 4 5 6 7 5 5 5 5 5 4 4 4 4 5 6 7 7 8 7 7 6 7 7 7 5 5 6 7 7 9 8 4 7 4 2 1 2 4 6 7 3 3 3 4 6 6 5 5 6 5 6 6 6 7 6 6 7 7 8 7 7 6 7 7 7 7
7 8 8 7 7 7 7 7 7 6 5 6 5 4 3 4 2 5 5 6 4 4 6 6 6 6 6 5 4 4 4 4 4 5 7 6 8 8 7 6 6 8 8 6 6 7 5 5 5 10 8 4 4 4 4 1 5 3 3 6 1 2 0 3 2 4 5 4 4 7 6 6 6 5 5 7 7 7 7 7 7 7 7 7 7
8 8 9 10 8 7 7 8 8 7 6 5 6 6 7 7 8 6 4 2 6 5 7 6 6 6 6 5 5 4 3 4 3 5 6 6 7 8 7 6 6 4 8 8 7 7 6 5 6 5 10 7 3 5 5 3 4 7 2 1 2 4 1 0 1 1 1 4 7 6 6 5 6 7 6 8 7 6 6 6 7 6 6 6 6
11 11 10 10 8 9 8 8 8 7 6 7 8 8 9 7 7 7 6 9 7 5 7 5 4 5 5 5 4 4 3 3 4 4 6 7 6 7 7 6 7 4 7 8 7 6 4 4 4 5 4 8 5 2 7 7 6 3 5 3 2 0 1 1 1 0 4 2 4 4 5 6 6 5 5 5 4 6 6 7 6 5 6 6 6
12 11 9 9 8 9 9 8 7 7 8 9 11 9 7 9 7 7 6 4 6 5 7 9 7 6 5 3 5 4 3 3 3 4 5 6 7 7 7 8 7 6 7 8 7 6 5 6 3 6 7 4 9 6 4 4 5 7 4 2 2 2 3 2 2 1 2 1 3 1 4 5 4 5 5 6 7 6 6 6 5 6 5 6 6
12 9 8 8 8 9 10 9 8 7 8 10 10 9 9 9 12 10 10 9 9 1 1 3 5 6 5 6 5 4 3 4 4 4 5 5 7 6 7 7 7 7 7 8 8 7 5 5 4 8 7 6 7 7 7 4 3 6 5 5 7 4 3 4 1 1 1 1 2 3 4 5 4 5 6 5 5 6 5 4 5 4 5 5 6
9 9 8 8 10 10 11 9 7 9 8 9 10 9 10 9 8 7 7 8 8 8 5 5 4 5 8 6 5 4 4 3 4 4 5 5 7 7 7 8 8 6 7 7 8 6 7 5 6 6 6 4 6 10 6 1 5 1 4 6 6 6 6 6 3 2 2 0 2 2 1 6 7 4 2 4 5 5 5 5 4 4 5 6 6
10 11 10 9 8 8 9 9 9 9 9 11 10 8 8 9 10 9 8 3 4 7 6 4 6 5 9 6 5 4 4 3 3 5 4 6 6 8 7 8 8 7 7 7 6 6 8 8 7 7 7 5 5 5 7 5 5 5 4 3 5 5 5 4 3 5 2 1 3 1 4 6 3 4 7 3 2 3 3 3 3 3 4 5 6
7 7 6 7 8 8 8 10 10 8 9 10 9 9 8 7 8 10 12 9 6 5 5 7 6 6 8 6 5 5 5 4 3 3 5 4 6 6 7 8 8 7 7 7 7 7 6 6 6 7 7 8 4 6 7 5 5 2 2 5 3 1 3 3 4 4 4 2 2 2 0 1 3 5 5 7 8 6 3 2 2 3 5 5 5
6 8 8 8 8 9 10 10 10 8 9 10 9 10 8 9 8 12 14 14 10 9 8 6 7 6 8 7 6 6 4 5 4 3 4 5 6 6 8 7 7 7 7 7 7 7 6 7 6 6 7 8 7 8 7 5 5 5 3 3 4 3 2 1 2 2 2 0 1 2 1 2 2 4 5 4 6 6 3 2 3 4 4 5 5
Wind_Direction
140 133 138 142 146 127 100 101 119 125 111 106 100 96 97 95 93 93 93 95 88 78 74 73 74 78 80 80 84 88 87 85 83 81 76 73 68 62 59 56 53 50 48 48 49 51 52 53 56 57 57 56 54 57 56 55 54 51 50 53 59 65 63 60 57 53 50 49 49 49 53 55 57 61 60 56 52 49 47 47 46 44 41 43 45
151 127 149 152 150 132 128 164 145 141 114 109 103 99 97 95 93 93 90 89 86 85 78 74 73 73 80 82 83 87 86 86 85 81 78 75 69 66 61 57 55 52 50 49 49 51 53 54 55 55 55 54 53 54 53 50 50 47 46 52 61 66 65 60 58 55 53 52 51 49 51 55 58 61 62 60 56 53 50 49 46 43 38 44 45
127 136 153 153 154 153 162 161 150 126 116 112 106 103 102 100 99 97 93 90 91 90 86 80 76 75 75 75 76 82 86 84 84 81 79 76 72 67 61 58 55 52 51 50 50 51 53 56 58 58 56 56 55 55 54 51 48 43 44 51 62 66 63 58 53 49 47 46 48 49 48 51 55 61 62 60 58 54 53 52 50 48 43 44 43
131 146 149 168 173 171 161 152 135 123 116 111 109 106 103 103 102 100 99 97 95 93 91 86 83 81 79 79 80 78 84 86 83 82 81 77 73 66 60 57 54 52 51 51 52 52 52 55 57 59 58 56 57 58 58 56 47 47 50 56 67 68 61 57 52 49 47 44 47 48 38 32 49 56 61 58 56 55 55 55 53 52 49 45 42
140 148 162 162 178 163 146 142 140 131 120 113 108 106 107 107 108 107 102 98 96 94 93 91 88 85 82 82 81 81 83 87 87 87 84 78 71 64 60 57 54 51 51 52 52 53 53 54 55 56 57 56 58 59 61 56 49 52 59 64 70 65 61 57 53 50 48 46 44 42 32 26 29 50 54 53 53 50 52 56 57 54 52 47 40
144 145 154 164 156 146 143 145 137 128 123 119 113 114 117 116 110 104 104 104 100 97 95 93 89 87 87 87 89 87 86 90 90 90 85 77 70 65 61 58 54 49 49 52 53 54 54 54 55 56 56 57 60 63 61 56 56 58 67 72 71 65 61 57 53 48 44 41 40 38 33 31 33 44 51 50 47 43 45 53 57 58 52 48 42
144 145 145 159 139 147 145 144 137 134 129 124 119 116 111 102 109 109 108 108 105 101 100 98 95 93 93 91 90 92 91 90 92 90 85 79 73 69 64 60 57 53 51 53 55 55 54 55 55 57 59 60 63 65 62 59 59 62 70 74 71 66 63 59 54 50 45 38 34 33 33 34 30 42 52 48 47 45 43 43 51 52 51 45 38
132 138 149 155 143 156 147 140 140 138 134 131 126 121 114 108 110 114 115 113 110 108 105 102 98 96 94 94 96 95 94 94 94 91 86 80 76 71 66 62 59 56 56 56 58 58 57 56 58 58 61 63 66 67 63 62 63 69 74 75 71 67 64 60 54 52 49 39 32 35 36 33 32 38 52 49 46 42 41 43 47 50 50 44 40
142 141 139 139 132 141 141 144 147 141 137 136 132 130 127 123 120 123 123 120 115 113 109 105 103 102 99 97 96 93 92 96 96 93 89 84 80 74 69 63 59 58 58 60 61 61 60 60 60 62 64 66 68 68 67 66 68 73 74 71 68 64 60 57 54 51 48 34 30 30 42 33 31 43 48 48 46 43 39 41 41 45 48 44 40
145 137 141 137 145 147 154 141 156 142 141 141 138 139 137 133 131 130 129 125 120 117 113 107 105 102 100 100 99 100 100 98 95 93 91 86 80 76 71 66 61 59 60 62 64 65 65 64 65 66 68 72 70 68 67 68 70 73 72 69 65 62 59 56 52 45 43 37 33 25 39 43 28 40 51 47 48 45 38 38 43 45 45 42 39
142 138 137 141 155 149 149 146 157 145 144 143 143 142 138 136 132 131 129 128 125 123 119 114 109 105 105 103 104 105 103 103 100 96 92 87 82 79 75 70 67 62 61 63 67 67 68 68 70 71 72 74 73 66 65 68 72 70 68 66 62 59 56 53 51 43 40 39 37 31 30 43 32 48 50 47 48 48 43 41 43 45 44 42 40
142 129 131 142 160 154 153 150 153 148 147 152 146 146 144 142 138 137 134 131 130 126 122 118 113 108 108 108 108 107 109 111 109 106 101 95 91 87 82 77 70 67 64 64 67 70 70 70 72 75 75 76 70 63 65 69 69 69 67 64 63 59 54 51 49 43 38 34 35 32 36 31 36 47 48 48 48 48 47 45 44 46 44 43 42
121 120 120 136 160 165 154 154 155 154 150 150 149 149 149 148 146 145 143 138 134 130 126 125 119 116 115 116 115 115 117 118 116 113 109 102 96 91 86 79 74 70 68 68 71 72 73 73 74 77 77 74 69 67 68 70 70 69 67 64 63 60 58 53 48 44 39 33 28 22 27 30 37 46 47 48 48 48 47 47 46 46 45 44 43
117 110 120 135 154 166 154 158 160 157 153 149 154 152 153 150 150 151 149 146 139 133 133 131 124 124 122 121 121 123 127 123 119 116 112 106 101 93 85 79 75 71 68 69 71 73 73 73 75 77 77 74 71 69 69 71 70 68 66 63 60 58 57 52 49 45 41 33 26 20 19 29 42 47 49 48 47 48 47 47 47 45 43 42 42
116 105 98 103 105 142 152 152 156 157 156 155 152 156 152 155 154 154 153 143 133 127 138 135 131 129 126 126 127 130 130 129 127 124 117 111 105 96 87 78 73 69 65 64 66 67 68 69 71 73 74 73 71 69 69 69 69 66 63 61 57 57 57 56 48 43 38 31 23 20 13 26 47 48 50 50 48 48 48 46 45 43 43 38 39
87 91 91 66 90 117 121 138 150 152 158 155 153 156 160 158 154 155 134 124 139 137 134 135 134 133 134 130 128 130 134 132 131 128 119 114 105 96 87 79 75 72 68 65 66 66 65 66 67 68 68 69 69 68 68 67 65 62 60 57 57 55 54 60 51 42 38 31 22 21 10 29 56 52 49 49 48 48 47 47 47 40 39 39 37
83 93 90 73 76 94 101 128 132 150 156 153 155 156 162 152 155 150 124 120 144 139 137 137 139 142 135 132 125 127 130 132 132 126 121 116 107 97 89 80 75 71 67 65 66 67 67 68 68 66 65 66 67 68 68 66 64 62 60 57 55 53 51 52 51 36 37 31 25 14 8 355 59 57 52 50 47 44 46 46 46 41 36 39 37
45 61 72 100 72 36 17 138 101 104 124 132 148 161 164 160 145 159 122 118 135 138 138 139 136 130 123 120 114 123 132 132 128 127 119 110 108 103 93 85 80 79 75 72 72 73 74 74 71 69 68 69 69 70 71 70 67 64 61 58 55 53 51 51 48 35 31 28 21 9 357 42 48 53 52 52 53 47 43 42 43 42 37 34 39
38 39 31 24 25 17 9 70 30 100 79 61 58 56 161 170 141 133 135 134 129 144 142 118 118 109 109 113 110 107 127 130 116 92 101 105 105 96 97 93 91 89 87 82 79 79 79 78 74 70 69 70 71 74 74 72 69 66 64 63 60 57 52 50 46 37 33 29 14 9 6 43 46 43 42 45 52 50 48 44 36 38 44 36 33
39 28 35 21 18 23 14 29 20 35 106 92 78 108 74 134 173 143 144 176 136 135 122 126 111 109 112 113 108 100 98 91 89 93 102 103 104 102 103 98 97 96 95 92 86 83 80 76 73 71 70 68 66 67 71 71 68 64 62 60 59 56 52 52 50 45 36 25 17 8 24 41 48 47 43 41 40 44 35 36 34 27 26 34 25
37 34 27 356 334 14 355 39 17 16 53 75 152 135 125 151 164 134 136 130 101 128 118 110 105 107 112 111 112 114 112 107 96 103 102 107 116 113 106 99 98 100 99 95 90 86 83 79 76 76 74 71 65 62 63 66 65 64 61 57 54 52 49 50 48 45 37 25 20 22 37 43 48 47 45 41 39 36 36 35 36 38 36 32 31
38 27 13 359 354 14 359 25 13 2 21 12 360 130 133 162 140 128 123 126 114 114 112 113 127 119 124 133 123 118 126 117 116 116 113 118 117 115 112 111 103 102 101 98 93 88 83 80 84 83 76 71 69 66 60 56 57 58 57 53 54 51 46 47 46 40 35 19 17 35 46 47 48 48 47 44 42 39 37 38 34 32 31 36 36
113 35 2 3 7 331 13 18 358 347 9 17 352 191 168 131 144 134 129 128 122 117 110 129 133 134 150 140 121 127 133 129 118 129 124 126 124 123 121 114 107 103 101 99 98 90 85 88 89 85 82 75 72 72 66 60 52 49 49 51 52 48 47 45 45 39 30 24 22 35 44 47 47 48 49 47 45 41 36 37 34 32 31 31 37
177 199 304 303 353 4 355 4 332 309 23 3 329 263 185 168 164 150 122 125 135 118 126 139 127 142 160 154 159 148 143 106 130 131 130 123 121 127 126 116 101 94 91 78 77 84 90 88 80 71 68 72 79 77 72 64 60 57 56 54 53 47 48 44 43 38 31 25 30 35 41 44 47 48 49 48 45 42 39 39 37 36 34 32 34
189 235 321 318 326 17 352 333 327 8 15 315 351 308 196 174 155 145 126 111 113 114 126 124 108 142 160 140 177 134 124 125 146 142 135 120 130 135 132 122 107 95 99 88 85 82 83 87 79 73 68 73 79 77 81 71 61 60 60 56 56 51 50 45 44 41 32 28 30 36 40 43 44 48 49 48 46 44 42 41 41 40 38 38 37
236 142 206 291 305 322 313 289 316 332 224 229 263 251 241 156 175 163 136 113 137 139 140 139 154 168 171 164 148 133 133 133 146 149 145 148 140 144 141 128 119 114 105 99 87 88 85 77 82 85 78 71 81 81 80 85 80 68 64 60 61 60 56 51 47 46 36 33 32 36 41 42 45 47 48 47 45 43 42 40 41 42 40 39 40
193 207 253 256 275 321 303 272 262 266 257 209 236 213 203 159 168 157 148 129 138 125 124 114 132 146 147 148 141 139 135 131 132 116 150 145 144 142 137 140 133 141 119 107 98 96 101 94 90 94 91 84 84 83 79 77 79 82 72 66 65 67 63 57 51 49 41 39 35 36 41 43 45 46 46 46 45 44 43 41 40 40 40 38 40
147 207 250 258 291 285 268 217 238 234 238 226 183 151 131 129 116 124 132 147 132 121 118 118 114 111 106 120 129 127 131 122 135 148 145 139 137 147 147 130 100 89 92 106 110 106 98 96 103 98 95 81 87 88 83 76 74 79 79 68 65 66 66 60 54 49 44 42 40 36 42 43 44 46 45 45 45 45 44 44 42 41 40 40 37
174 203 217 283 271 260 290 301 264 234 221 199 160 147 127 123 113 122 120 123 128 126 113 126 113 99 91 124 134 124 116 121 126 119 107 104 110 115 121 106 108 115 113 103 116 119 103 100 103 96 87 84 84 84 89 82 78 78 83 77 68 66 65 58 50 42 39 41 40 35 39 41 42 44 45 44 45 45 43 42 43 42 42 42 39
199 180 195 242 270 293 282 262 250 214 210 178 150 141 133 115 120 115 113 111 97 114 107 130 102 87 111 127 133 129 132 130 123 118 115 102 94 89 99 112 112 121 112 97 88 101 107 104 101 92 88 84 80 76 88 81 76 76 79 81 72 69 66 62 51 41 39 39 37 34 33 38 39 41 43 44 44 45 45 43 42 41 39 40 41
178 183 205 241 247 273 269 259 255 218 198 161 152 135 135 113 116 108 106 113 116 114 102 111 97 87 102 103 113 118 123 123 119 117 111 112 99 96 99 95 89 71 100 101 90 96 88 84 86 94 98 96 87 84 89 88 81 79 82 81 74 68 65 60 54 45 44 39 39 38 29 32 37 37 39 42 44 44 45 43 42 42 38 40 41
177 200 189 242 277 270 278 285 249 203 182 147 136 130 131 115 112 108 119 101 128 108 105 92 93 89 83 90 88 101 115 113 116 120 123 119 114 105 94 92 88 79 78 98 92 87 93 89 81 82 90 92 93 86 83 90 81 77 79 80 76 70 66 62 57 49 48 46 42 39 36 28 30 35 36 37 42 42 42 42 41 42 43 39 39
212 184 218 245 255 269 281 301 191 178 149 134 126 122 123 118 120 118 124 107 96 93 98 100 101 98 98 83 83 97 102 114 112 115 110 106 106 100 87 78 76 89 84 99 96 95 91 90 82 89 83 81 84 86 84 86 90 84 79 78 77 70 68 64 58 53 50 48 43 40 38 33 31 29 30 34 36 40 41 41 40 39 40 40 37
178 214 188 229 255 283 304 347 89 125 122 115 121 122 125 115 108 118 111 95 83 95 101 88 103 95 75 72 90 93 106 108 114 101 105 102 96 91 96 84 75 81 78 74 92 93 92 88 91 87 76 81 88 94 97 90 88 86 78 76 74 72 71 67 59 56 53 51 44 44 36 37 34 33 27 28 30 34 38 40 39 39 39 39 39
163 205 211 218 238 262 311 80 90 106 111 115 122 115 129 111 113 110 103 105 97 98 114 102 84 88 83 64 66 92 93 97 102 114 100 104 101 96 89 94 89 85 85 74 93 88 92 90 96 100 86 83 85 87 97 98 94 83 77 78 81 82 75 74 62 56 52 52 51 44 40 37 34 36 31 30 22 25 32 35 37 36 37 37 38
185 196 215 219 191 223 98 131 104 113 103 106 109 107 116 103 96 94 95 92 95 92 82 79 71 82 84 76 65 85 92 95 102 107 108 102 104 105 107 108 105 97 93 93 92 96 95 88 58 87 108 90 97 90 92 96 88 86 83 81 81 77 78 68 60 57 49 56 50 47 42 40 37 36 33 32 30 20 27 31 33 33 34 35 36
185 193 199 200 177 160 171 150 130 123 108 98 100 92 88 94 87 81 85 86 84 79 69 74 86 82 78 81 65 83 89 97 99 101 109 113 110 108 113 108 106 103 98 91 84 83 102 97 71 31 94 120 106 99 89 89 88 84 82 76 65 68 67 61 57 54 49 53 45 44 43 38 40 38 34 33 30 26 23 28 30 30 29 33 34
186 194 196 195 175 166 171 150 125 110 119 120 101 105 88 85 84 73 77 69 68 74 70 70 69 75 81 76 58 86 91 95 99 101 100 98 108 111 106 100 100 97 91 86 84 81 80 100 94 43 38 114 113 113 103 91 90 85 76 69 61 58 61 60 56 50 52 47 41 40 35 38 38 35 35 32 30 26 26 21 25 26 23 29 34
186 190 188 197 153 159 148 139 130 125 117 106 108 93 89 82 86 89 76 72 78 70 77 68 64 69 74 75 72 87 98 101 106 112 113 114 106 103 99 100 113 103 99 93 84 81 82 78 106 89 59 51 106 106 110 103 87 80 73 64 65 59 59 61 57 57 50 47 44 32 36 30 32 29 31 31 24 28 26 22 23 22 16 24 30
189 186 180 178 170 159 149 140 146 134 118 116 123 111 96 99 110 94 81 76 80 86 54 68 27 44 58 76 79 83 98 110 113 113 111 110 108 104 102 95 92 103 102 97 95 98 113 102 96 111 97 75 58 90 108 106 88 79 75 62 54 61 59 62 60 55 50 40 34 35 36 26 31 23 27 22 28 26 26 23 23 17 19 18 26
196 187 178 182 180 170 155 163 161 145 140 140 140 136 129 102 78 101 111 97 84 96 76 63 51 49 48 54 75 78 96 109 111 116 113 106 103 106 99 82 89 94 94 95 105 103 94 107 105 85 111 107 66 40 65 96 108 71 57 63 54 37 62 67 63 53 47 38 34 47 28 35 24 26 11 21 27 25 26 24 19 18 20 21 19
201 186 188 183 180 175 167 162 159 160 154 152 146 136 117 152 147 141 124 113 120 118 104 66 73 64 41 55 61 66 79 92 113 114 111 118 120 106 102 108 102 95 93 97 96 94 100 106 117 86 18 103 98 341 310 56 48 133 127 92 56 51 68 62 60 42 40 35 35 49 36 39 27 16 12 26 26 23 24 22 20 21 22 26 25
192 191 189 177 181 178 175 165 163 164 158 149 145 131 97 75 92 128 129 105 40 67 93 89 88 82 62 36 48 63 85 94 101 113 116 116 112 111 110 109 106 116 108 94 92 84 88 111 120 125 108 55 88 27 1 354 130 111 100 91 138 65 350 10 14 43 33 28 34 43 33 37 24 23 16 31 24 18 20 17 24 24 24 28 29
194 192 190 185 178 180 178 169 165 163 158 126 101 83 81 84 74 71 59 56 128 104 90 87 87 88 74 41 41 50 56 97 96 107 108 105 111 114 115 108 98 101 117 112 98 94 96 101 106 113 125 108 52 30 6 10 100 128 104 93 192 110 67 320 349 294 20 47 40 38 31 25 15 14 32 35 14 19 20 19 26 27 30 31 32
198 194 189 186 179 179 176 173 165 158 134 122 117 116 108 82 83 76 79 93 72 91 102 77 76 94 97 67 53 46 60 86 90 99 110 110 105 110 110 107 105 102 103 102 96 102 95 93 109 107 86 130 107 99 23 27 36 29 139 99 45 65 204 227 72 260 7 15 7 28 39 22 14 16 21 31 32 25 18 21 22 29 34 34 32
199 194 185 183 176 174 171 171 156 143 139 135 137 137 142 134 128 130 125 104 121 150 148 150 147 131 119 109 67 52 58 78 80 97 101 110 110 110 112 112 108 100 96 100 106 96 86 87 74 113 92 65 122 101 77 26 56 43 49 109 155 174 174 227 91 239 331 69 306 19 53 17 5 15 19 20 24 16 24 17 17 27 30 33 29
200 178 178 182 176 171 168 167 161 147 143 145 148 146 148 149 152 154 152 155 146 230 30 70 123 113 94 96 85 62 47 88 89 94 104 109 111 113 113 110 107 106 105 104 99 102 101 96 94 92 99 117 109 105 112 140 70 37 29 53 60 48 113 130 185 90 28 318 12 349 351 9 8 12 9 22 13 18 19 14 17 28 32 32 29
179 174 177 175 176 173 166 165 159 154 154 154 158 164 153 156 147 143 150 154 164 154 152 121 89 118 107 95 95 77 61 60 107 102 113 117 118 115 113 109 105 103 108 102 111 118 102 79 82 91 84 80 112 124 146 211 114 41 10 43 48 47 46 67 88 137 149 146 303 325 295 343 354 350 1 13 13 19 9 5 14 28 39 33 30
177 181 181 175 167 162 161 158 161 159 159 161 161 167 162 159 152 145 138 104 120 136 130 124 126 123 111 100 98 93 83 67 84 115 118 122 122 122 115 111 107 105 104 104 104 109 110 115 106 96 102 81 89 119 112 136 123 146 118 51 56 55 54 63 64 66 115 121 287 248 304 326 347 330 346 9 62 31 24 3 1 33 45 40 31
175 167 159 155 161 157 162 165 165 165 162 163 165 165 161 154 157 149 143 132 130 118 135 138 135 133 122 122 116 117 119 109 97 106 114 114 118 116 114 113 113 114 107 114 112 101 98 98 107 114 113 99 77 92 108 119 101 103 116 148 105 60 47 37 37 68 46 69 189 263 208 38 348 300 331 340 345 348 4 11 24 50 53 46 29
169 168 166 169 164 166 166 172 169 163 167 166 166 168 161 162 170 154 151 141 147 147 141 146 142 139 138 140 138 140 140 134 129 113 114 123 115 114 116 113 111 115 118 120 122 119 115 110 109 101 102 113 113 106 94 86 98 87 65 105 144 156 166 150 172 98 122 130 39 299 313 220 208 303 294 320 326 319 328 359 57 64 58 43 32